York, NE

8:12 PM CST on February 25, 2018 (GMT -0600)
York Municipal

Weather History for KJYR - January, 2014

Change the Weather History Date:

Friday, January 31, 2014

  Actual Average Record
Temperature  
Mean Temperature 18 °F -  
Max Temperature 23 °F 36 °F 62 °F (1961)
Min Temperature 14 °F 15 °F -16 °F (1950)
Degree Days  
Heating Degree Days 46    
Moisture  
Dew Point 13 °F    
Average Humidity 80    
Maximum Humidity 93    
Minimum Humidity 68    
Precipitation  
Precipitation 0.00 in - - ()
Sea Level Pressure  
Sea Level Pressure 30.01 in    
Wind  
Wind Speed 7 mph (ENE)    
Max Wind Speed 13 mph    
Max Gust Speed -    
Visibility 7 miles    
Events Snow    
Averages and records for this station are not official NWS values.
T = Trace of Precipitation, MM = Missing Value Source: NWS Daily Summary

Daily Weather History Graph

Daily Weather History Graph

Search for Another Location

Airport or City:

Trip Planner

Search our weather history database for the weather conditions in past years. The results will help you decide how hot, cold, wet, or windy it might be!

Date:

Astronomy

Jan. 31, 2014 Rise Set
Actual Time 7:41 AM CST 5:46 PM CST
Civil Twilight 7:12 AM CST 6:15 PM CST
Nautical Twilight 6:39 AM CST 6:48 PM CST
Astronomical Twilight 6:07 AM CST 7:20 PM CST
Moon 7:51 AM CST (1/31) 7:13 PM CST (1/31)
Length of Visible Light 11h 03m
Length of Day
10h 04m
New Moon, 1% of the Moon is Illuminated
Jan 31
New Moon
Feb 6
First Quarter
Feb 14
Full
Feb 22
Last Quarter
Mar 1
New

Hourly Weather History & Observations

Time (CST) Temp. Windchill Dew Point Humidity Pressure Visibility Wind Dir Wind Speed Gust Speed Precip Events Conditions
12:15 AM 19.4 °F 7.2 °F 15.8 °F 86% 30.02 in 3.0 mi NNE 11.5 mph - N/A Snow Light Snow
12:35 AM 19.4 °F 7.2 °F 15.8 °F 86% 30.03 in 4.0 mi NNE 11.5 mph - N/A Snow Light Snow
12:55 AM 19.4 °F 8.6 °F 14.0 °F 80% 30.03 in 7.0 mi NNE 9.2 mph - N/A Snow Light Snow
1:15 AM 19.4 °F 7.9 °F 14.0 °F 80% 30.02 in 5.0 mi NE 10.4 mph - N/A Snow Light Snow
1:35 AM 17.6 °F 5.7 °F 15.8 °F 93% 30.02 in 4.0 mi NE 10.4 mph - N/A Snow Light Snow
1:55 AM 17.6 °F 5.0 °F 15.8 °F 93% 30.01 in 5.0 mi NE 11.5 mph - N/A Snow Light Snow
2:15 AM 17.6 °F 6.4 °F 14.0 °F 86% 30.01 in 4.0 mi NE 9.2 mph - N/A Snow Light Snow
2:35 AM 17.6 °F 8.2 °F 14.0 °F 86% 30.03 in 5.0 mi ENE 6.9 mph - N/A Snow Light Snow
2:55 AM 17.6 °F 8.2 °F 14.0 °F 86% 30.03 in 5.0 mi NE 6.9 mph - N/A Snow Light Snow
3:15 AM 17.6 °F 7.3 °F 14.0 °F 86% 30.02 in 5.0 mi ENE 8.1 mph - N/A Snow Light Snow
3:35 AM 17.6 °F 8.2 °F 12.2 °F 79% 30.03 in 10.0 mi ENE 6.9 mph - N/A Snow Light Snow
3:55 AM 17.6 °F 6.4 °F 10.4 °F 73% 30.04 in 10.0 mi NE 9.2 mph - N/A   Mostly Cloudy
4:15 AM 17.6 °F 6.4 °F 10.4 °F 73% 30.04 in 10.0 mi NE 9.2 mph - N/A   Overcast
4:35 AM 17.6 °F 6.4 °F 10.4 °F 73% 30.03 in 10.0 mi NE 9.2 mph - N/A Snow Light Snow
4:55 AM 15.8 °F 2.1 °F 10.4 °F 79% 30.02 in 6.0 mi ENE 12.7 mph - N/A Snow Light Snow
5:15 AM 15.8 °F 4.2 °F 10.4 °F 79% 30.03 in 3.0 mi ENE 9.2 mph - N/A Snow Light Snow
5:35 AM 15.8 °F 4.2 °F 10.4 °F 79% 30.04 in 8.0 mi NE 9.2 mph - N/A Snow Light Snow
5:55 AM 15.8 °F 4.2 °F 8.6 °F 73% 30.05 in 10.0 mi NE 9.2 mph - N/A   Overcast
6:15 AM 15.8 °F 5.1 °F 8.6 °F 73% 30.05 in 10.0 mi ENE 8.1 mph - N/A   Overcast
6:35 AM 15.8 °F 5.1 °F 8.6 °F 73% 30.06 in 10.0 mi ENE 8.1 mph - N/A   Overcast
6:55 AM 15.8 °F 4.2 °F 8.6 °F 73% 30.07 in 10.0 mi ENE 9.2 mph - N/A   Overcast
7:15 AM 15.8 °F 5.1 °F 8.6 °F 73% 30.08 in 6.0 mi ENE 8.1 mph - N/A Snow Light Snow
7:35 AM 14.0 °F 2.9 °F 8.6 °F 79% 30.08 in 4.0 mi ENE 8.1 mph - N/A Snow Light Snow
7:55 AM 14.0 °F 2.9 °F 8.6 °F 79% 30.09 in 1.5 mi East 8.1 mph - N/A Snow Light Snow
8:15 AM 14.0 °F 3.9 °F 8.6 °F 79% 30.09 in 1.2 mi East 6.9 mph - N/A Snow Light Snow
8:35 AM 14.0 °F 2.9 °F 8.6 °F 79% 30.09 in 1.8 mi NE 8.1 mph - N/A Snow Light Snow
8:55 AM 14.0 °F 5.1 °F 8.6 °F 79% 30.10 in 2.0 mi ENE 5.8 mph - N/A Snow Light Snow
9:15 AM 14.0 °F 5.1 °F 10.4 °F 86% 30.11 in 2.5 mi NE 5.8 mph - N/A Snow Light Snow
9:35 AM 14.0 °F 5.1 °F 10.4 °F 86% 30.10 in 2.5 mi NE 5.8 mph - N/A Snow Light Snow
9:55 AM 15.8 °F 8.6 °F 10.4 °F 79% 30.11 in 2.5 mi East 4.6 mph - N/A Snow Light Snow
10:15 AM 15.8 °F 7.2 °F 10.4 °F 79% 30.11 in 3.0 mi ENE 5.8 mph - N/A Snow Light Snow
10:35 AM 15.8 °F 7.2 °F 10.4 °F 79% 30.11 in 3.0 mi East 5.8 mph - N/A Snow Light Snow
10:55 AM 15.8 °F 7.2 °F 12.2 °F 86% 30.12 in 5.0 mi East 5.8 mph - N/A Snow Light Snow
11:15 AM 15.8 °F 5.1 °F 10.4 °F 79% 30.12 in 9.0 mi ENE 8.1 mph - N/A Snow Light Snow
11:35 AM 15.8 °F 5.1 °F 10.4 °F 79% 30.10 in 3.0 mi ENE 8.1 mph - N/A Snow Light Snow
11:55 AM 15.8 °F 4.2 °F 10.4 °F 79% 30.08 in 5.0 mi ENE 9.2 mph - N/A Snow Light Snow
12:15 PM 17.6 °F 9.3 °F 12.2 °F 79% 30.08 in 5.0 mi East 5.8 mph - N/A Snow Light Snow
12:35 PM 17.6 °F 12.3 °F 12.2 °F 79% 30.07 in 8.0 mi ENE 3.5 mph - N/A Snow Light Snow
12:55 PM 17.6 °F 9.3 °F 14.0 °F 86% 30.04 in 10.0 mi East 5.8 mph - N/A   Partly Cloudy
1:15 PM 19.4 °F 11.5 °F 14.0 °F 80% 30.01 in 10.0 mi East 5.8 mph - N/A   Clear
1:35 PM 19.4 °F 10.4 °F 14.0 °F 80% 30.00 in 10.0 mi ENE 6.9 mph - N/A   Scattered Clouds
1:55 PM 19.4 °F 9.5 °F 14.0 °F 80% 29.98 in 10.0 mi ENE 8.1 mph - N/A   Mostly Cloudy
2:15 PM 21.2 °F 13.6 °F 15.8 °F 80% 29.99 in 10.0 mi ENE 5.8 mph - N/A   Mostly Cloudy
2:35 PM 19.4 °F - 15.8 °F 86% 29.98 in 10.0 mi Calm Calm - N/A   Mostly Cloudy
2:55 PM 21.2 °F 14.9 °F 15.8 °F 80% 29.98 in 10.0 mi ESE 4.6 mph - N/A   Overcast
3:15 PM 21.2 °F - 15.8 °F 80% 29.98 in 10.0 mi Calm Calm - N/A   Overcast
3:35 PM 21.2 °F - 15.8 °F 80% 29.97 in 10.0 mi Calm Calm - N/A   Overcast
3:55 PM 23.0 °F 17.0 °F 15.8 °F 74% 29.97 in 10.0 mi East 4.6 mph - N/A   Overcast
4:15 PM 23.0 °F 18.4 °F 15.8 °F 74% 29.97 in 10.0 mi ESE 3.5 mph - N/A   Overcast
4:35 PM 23.0 °F - 15.8 °F 74% 29.96 in 10.0 mi Calm Calm - N/A   Overcast
4:55 PM 23.0 °F 17.0 °F 15.8 °F 74% 29.95 in 10.0 mi ESE 4.6 mph - N/A   Overcast
5:15 PM 23.0 °F 18.4 °F 15.8 °F 74% 29.94 in 10.0 mi ESE 3.5 mph - N/A   Overcast
5:35 PM 23.0 °F 13.9 °F 15.8 °F 74% 29.92 in 10.0 mi ESE 8.1 mph - N/A   Overcast
5:55 PM 23.0 °F 18.4 °F 15.8 °F 74% 29.94 in 10.0 mi ESE 3.5 mph - N/A   Overcast
6:15 PM 23.0 °F 18.4 °F 15.8 °F 74% 29.94 in 10.0 mi ESE 3.5 mph - N/A   Overcast
6:35 PM 23.0 °F - 15.8 °F 74% 29.94 in 10.0 mi Calm Calm - N/A   Overcast
6:55 PM 23.0 °F - 15.8 °F 74% 29.95 in 10.0 mi Calm Calm - N/A   Overcast
7:15 PM 23.0 °F 15.8 °F 14.0 °F 68% 29.94 in 10.0 mi SE 5.8 mph - N/A   Overcast
7:35 PM 23.0 °F - 14.0 °F 68% 29.94 in 10.0 mi Calm Calm - N/A   Overcast
7:55 PM 23.0 °F 17.0 °F 14.0 °F 68% 29.94 in 10.0 mi SE 4.6 mph - N/A   Overcast
8:15 PM 23.0 °F - 14.0 °F 68% 29.94 in 10.0 mi Calm Calm - N/A   Overcast
8:35 PM 23.0 °F - 15.8 °F 74% 29.94 in 8.0 mi Calm Calm - N/A Snow Light Snow
8:55 PM 23.0 °F - 17.6 °F 80% 29.94 in 3.0 mi Calm Calm - N/A Snow Light Snow
9:15 PM 21.2 °F - 17.6 °F 86% 29.94 in 4.0 mi Calm Calm - N/A Snow Light Snow
9:35 PM 21.2 °F - 17.6 °F 86% 29.94 in 4.0 mi Calm Calm - N/A Snow Light Snow
9:55 PM 19.4 °F - 17.6 °F 93% 29.95 in 3.0 mi Calm Calm - N/A Snow Light Snow
10:15 PM 19.4 °F - 17.6 °F 93% 29.96 in 4.0 mi Calm Calm - N/A Snow Light Snow
10:35 PM 19.4 °F - 17.6 °F 93% 29.95 in 5.0 mi Calm Calm - N/A Snow Light Snow
10:55 PM 19.4 °F 14.3 °F 17.6 °F 93% 29.94 in 5.0 mi NE 3.5 mph - N/A Snow Light Snow
11:15 PM 19.4 °F - 17.6 °F 93% 29.94 in 7.0 mi Calm Calm - N/A Snow Light Snow
11:35 PM 19.4 °F 14.3 °F 17.6 °F 93% 29.93 in 6.0 mi NNE 3.5 mph - N/A Snow Light Snow
11:55 PM 19.4 °F 14.3 °F 17.6 °F 93% 29.92 in 3.0 mi NE 3.5 mph - N/A Snow Light Snow